Погода в Новониколаевке

Россия / Кемеровская область (Кузбасс)     56°10′05″N   86°27′50″E
темп.,
°C
ветер,
м/с
пор.,
м/с
влажн.,
%
обл.,
%
осадки,
мм/ч
давл.,
гПа
погр.,
м
14 апреля, ср
ср1401:00+1з5996100 1.0 1029452
04:00−1зюз51097100 0.0 1028309
07:000зюз51098100 0.2 1027505
10:00+1зюз51199100 0.8 1026515
13:00+1юз71498100 1.8 1023650
16:00+1зюз91798100 2.8 1020852
19:00+3з81596100 3.4 1019864
22:00+3з61396100 0.2 1021528
15 апреля, чт
чт1501:00+3з41099100 0.3 1022372
04:00+2зсз3699100 0.1 1024167
07:00+1з2499100 0.1 1025121
10:00+2зюз25100100 0.1 1025222
13:00+4юз3796100 0.1 1024455
16:00+5юз5894100 0.0 1022548
19:00+4юз5994100 0.1 1021421
22:00+3юз51097100 0.0 1020344
16 апреля, пт
пт1601:00+3ююз51198100 0.0 1019340
04:00+3юз71397100 0.0 1017407
07:00+4юз71596100 0.0 1015598
10:00+7юз8168675 0.0 1013756
13:00+9юз9178190 0.0 1010775
16:00+12зюз101675100 0.0 10081154
19:00+11зсз7127899 0.7 1008860
22:00+1с5991100 1.1 1014697
17 апреля, сб
сб1701:000с5893100 2.2 1016664
04:00−1с5882100 0.5 1017724
07:00−5ссв6973100 0.6 1020662
10:00−4св6759100 0.0 1020816
13:00−4ссв6986100 2.9 1015888
16:00+1всв674497 0.0 10181404
19:000всв68515 0.0 10171306
22:00−3в510655 0.0 1017878
18 апреля, вс
вс1801:00−4в6127080 0.0 1015726
04:00−4в61083100 0.1 1013650
07:00−4в4687100 0.3 1011457
10:00−2зюз3474100 0.2 1009876
13:00+1зюз4648100 0.2 10081315
16:00+3ююз584693 0.0 10071656
19:00−2зюз116972 0.2 1019287
22:00−3з5115236 0.0 1012581